Weather History for Antigo, WI

Change the Weather History Date:

Sunday, December 9, 2012

  Actual Average Record
Temperature  
Mean Temperature 24 °F -  
Max Temperature 27 °F 26 °F 45 °F (1984)
Min Temperature 21 °F 9 °F -15 °F (1958)
Degree Days  
Heating Degree Days 41    
Moisture  
Dew Point 23 °F    
Average Humidity 89    
Maximum Humidity 96    
Minimum Humidity 80    
Precipitation  
Precipitation 0.00 in - - ()
Sea Level Pressure  
Sea Level Pressure 29.94 in    
Wind  
Wind Speed 11 mph (ENE)    
Max Wind Speed 16 mph    
Max Gust Speed 21 mph    
Visibility 6 miles    
Events Snow    
Averages and records for this station are not official NWS values.
T = Trace of Precipitation, MM = Missing Value Source: NWS Daily Summary

Daily Weather History Graph

Daily Weather History Graph

Search for Another Location

Airport:

Trip Planner

Search our weather history database for the weather conditions in past years. The results will help you decide how hot, cold, wet, or windy it might be!

Date:

Astronomy

Dec. 09, 2012 Rise Set
Actual Time 7:23 AM CST 4:14 PM CST
Civil Twilight 6:50 AM CST 4:47 PM CST
Nautical Twilight 6:12 AM CST 5:25 PM CST
Astronomical Twilight 5:37 AM CST 6:00 PM CST
Moon 2:48 AM CST (12/9) 1:28 PM CST (12/9)
Length of Visible Light 9h 57m
Length of Day
8h 50m
Waning Crescent, 18% of the Moon is Illuminated
Dec 9
Waning Crescent
Dec 13
New
Dec 19
First Quarter
Dec 28
Full
Jan 4
Last Quarter

Hourly Weather History & Observations

Time (CST) Temp. Windchill Dew Point Humidity Pressure Visibility Wind Dir Wind Speed Gust Speed Precip Events Conditions
12:15 AM 21.9 °F 12.5 °F 16.5 °F 80% 30.10 in 10.0 mi ESE 8.1 mph - N/A   Clear
12:35 AM 22.1 °F 12.0 °F 16.7 °F 80% 30.10 in 10.0 mi ESE 9.2 mph - N/A   Clear
12:55 AM 22.3 °F 12.2 °F 17.4 °F 82% 30.10 in 10.0 mi ESE 9.2 mph - N/A   Clear
1:15 AM 22.5 °F 12.4 °F 17.4 °F 81% 30.10 in 10.0 mi ESE 9.2 mph - N/A   Clear
1:35 AM 22.6 °F 13.4 °F 17.6 °F 81% 30.11 in 10.0 mi ESE 8.1 mph - N/A   Clear
1:55 AM 23.0 °F 13.1 °F 18.1 °F 82% 30.13 in 10.0 mi East 9.2 mph - N/A   Clear
2:15 AM 23.0 °F 15.8 °F 18.1 °F 82% 30.14 in 10.0 mi East 5.8 mph - N/A   Clear
2:35 AM 23.0 °F 15.8 °F 18.0 °F 81% 30.13 in 10.0 mi East 5.8 mph - N/A   Scattered Clouds
2:55 AM 23.5 °F 15.4 °F 18.3 °F 80% 30.11 in 10.0 mi East 6.9 mph - N/A   Mostly Cloudy
3:15 AM 23.5 °F 11.8 °F 18.5 °F 81% 30.09 in 10.0 mi East 12.7 mph - N/A   Scattered Clouds
3:35 AM 23.7 °F 11.0 °F 18.5 °F 80% 30.08 in 10.0 mi East 15.0 mph - N/A   Scattered Clouds
3:55 AM 23.9 °F 13.5 °F 18.5 °F 80% 30.08 in 10.0 mi East 10.4 mph - N/A   Scattered Clouds
4:15 AM 23.9 °F 12.9 °F 18.9 °F 81% 30.07 in 10.0 mi East 11.5 mph - N/A   Scattered Clouds
4:35 AM 24.4 °F 15.6 °F 19.2 °F 81% 30.07 in 10.0 mi East 8.1 mph - N/A   Mostly Cloudy
4:55 AM 24.6 °F 13.8 °F 19.4 °F 81% 30.06 in 10.0 mi East 11.5 mph - N/A   Overcast
5:15 AM 24.6 °F 13.8 °F 19.9 °F 82% 30.08 in 10.0 mi East 11.5 mph 18.4 mph N/A   Overcast
5:35 AM 25.2 °F 15.7 °F 20.8 °F 84% 30.08 in 10.0 mi East 9.2 mph - N/A   Overcast
5:55 AM 25.5 °F 16.2 °F 21.2 °F 84% 30.08 in 10.0 mi ENE 9.2 mph - N/A   Overcast
6:15 AM 25.5 °F 16.2 °F 21.4 °F 84% 30.08 in 10.0 mi East 9.2 mph - N/A   Overcast
6:35 AM 25.7 °F 15.7 °F 21.7 °F 85% 30.08 in 10.0 mi East 10.4 mph - N/A   Overcast
6:55 AM 25.7 °F 17.1 °F 21.7 °F 85% 30.08 in 10.0 mi East 8.1 mph - N/A   Overcast
7:15 AM 25.7 °F 15.1 °F 22.1 °F 86% 30.08 in 10.0 mi East 11.5 mph 16.1 mph N/A   Overcast
7:35 AM 25.7 °F 14.6 °F 22.1 °F 86% 30.07 in 10.0 mi East 12.7 mph - N/A   Overcast
7:55 AM 25.7 °F 14.6 °F 22.5 °F 88% 30.05 in 10.0 mi East 12.7 mph - N/A   Overcast
8:15 AM 25.9 °F 15.3 °F 22.8 °F 88% 30.04 in 10.0 mi East 11.5 mph 17.3 mph N/A   Overcast
8:35 AM 26.1 °F 15.0 °F 22.8 °F 88% 30.04 in 10.0 mi East 12.7 mph - N/A   Overcast
8:55 AM 26.2 °F 14.2 °F 23.0 °F 88% 30.04 in 10.0 mi East 15.0 mph 20.7 mph N/A   Overcast
9:15 AM 26.6 °F 14.7 °F 23.0 °F 86% 30.04 in 10.0 mi East 15.0 mph 19.6 mph N/A   Overcast
9:35 AM 27.0 °F 14.7 °F 23.2 °F 86% 30.04 in 10.0 mi ESE 16.1 mph 19.6 mph N/A   Overcast
9:55 AM 27.1 °F 16.4 °F 23.2 °F 85% 30.03 in 10.0 mi East 12.7 mph 18.4 mph N/A   Overcast
10:15 AM 27.3 °F 15.6 °F 23.2 °F 84% 30.03 in 10.0 mi ESE 15.0 mph 19.6 mph N/A   Mostly Cloudy
10:35 AM 27.5 °F 18.0 °F 23.5 °F 85% 30.03 in 10.0 mi East 10.4 mph - N/A   Mostly Cloudy
10:55 AM 27.5 °F 17.4 °F 23.7 °F 86% 30.02 in 7.0 mi East 11.5 mph - N/A Snow Light Snow
11:15 AM 27.1 °F 16.9 °F 24.1 °F 88% 30.00 in 3.0 mi East 11.5 mph - N/A Snow Light Snow
11:35 AM 27.0 °F 17.3 °F 24.6 °F 91% 29.99 in 1.5 mi East 10.4 mph - N/A Snow Light Snow
11:55 AM 27.0 °F 16.1 °F 24.6 °F 91% 29.97 in 1.8 mi East 12.7 mph - N/A Snow Light Snow
12:15 PM 27.0 °F 16.7 °F 24.6 °F 91% 29.95 in 1.5 mi East 11.5 mph - N/A Snow Light Snow
12:35 PM 27.1 °F 16.9 °F 24.8 °F 91% 29.94 in 1.2 mi East 11.5 mph 18.4 mph N/A Snow Light Snow
12:55 PM 27.1 °F 16.4 °F 24.8 °F 91% 29.92 in 1.2 mi ENE 12.7 mph - N/A Snow Light Snow
1:15 PM 27.1 °F 15.9 °F 24.8 °F 91% 29.90 in 1.0 mi ENE 13.8 mph 19.6 mph N/A Snow Light Snow
1:35 PM 27.1 °F 15.9 °F 24.8 °F 91% 29.89 in 1.0 mi ENE 13.8 mph 18.4 mph N/A Snow Light Snow
1:55 PM 27.3 °F 17.1 °F 25.2 °F 92% 29.88 in 1.0 mi ENE 11.5 mph - N/A Snow Light Snow
2:15 PM 27.5 °F 17.4 °F 25.3 °F 92% 29.87 in 1.0 mi ENE 11.5 mph - N/A Snow Light Snow
2:35 PM 27.5 °F 17.4 °F 25.5 °F 92% 29.87 in 1.0 mi ENE 11.5 mph - N/A Snow Light Snow
2:55 PM 27.3 °F 16.6 °F 25.5 °F 93% 29.85 in 0.8 mi ENE 12.7 mph - N/A Snow Light Snow
3:15 PM 27.3 °F 16.6 °F 25.5 °F 93% 29.84 in 1.2 mi ENE 12.7 mph - N/A Snow Light Snow
3:35 PM 27.5 °F 17.4 °F 25.7 °F 93% 29.83 in 1.2 mi ENE 11.5 mph - N/A Snow Light Snow
3:55 PM 27.5 °F 18.0 °F 25.5 °F 92% 29.83 in 1.0 mi ENE 10.4 mph - N/A Snow Light Snow
4:15 PM 27.1 °F 15.9 °F 25.2 °F 92% 29.83 in 1.8 mi ENE 13.8 mph - N/A Snow Light Snow
4:35 PM 27.1 °F 16.9 °F 25.0 °F 92% 29.81 in 3.0 mi ENE 11.5 mph 18.4 mph N/A Snow Light Snow
4:55 PM 27.0 °F 16.1 °F 25.3 °F 94% 29.81 in 1.2 mi ENE 12.7 mph - N/A Snow Light Snow
5:15 PM 26.6 °F 16.8 °F 25.3 °F 95% 29.81 in 1.5 mi NE 10.4 mph - N/A Snow Light Snow
5:35 PM 26.4 °F 16.0 °F 25.2 °F 95% 29.81 in 3.0 mi NE 11.5 mph - N/A Snow Light Snow
5:55 PM 26.2 °F 16.4 °F 24.8 °F 94% 29.82 in 2.5 mi NE 10.4 mph - N/A Snow Light Snow
6:15 PM 26.1 °F 16.2 °F 24.8 °F 95% 29.82 in 2.5 mi NE 10.4 mph - N/A Snow Light Snow
6:35 PM 25.7 °F 15.1 °F 24.8 °F 96% 29.81 in 2.5 mi NE 11.5 mph - N/A Snow Light Snow
6:55 PM 25.7 °F 15.1 °F 24.6 °F 96% 29.82 in 2.0 mi NE 11.5 mph - N/A Snow Light Snow
7:15 PM 25.7 °F 15.7 °F 24.6 °F 96% 29.80 in 1.8 mi NE 10.4 mph - N/A Snow Light Snow
7:35 PM 25.5 °F 15.5 °F 24.4 °F 96% 29.80 in 3.0 mi NE 10.4 mph - N/A Snow Light Snow
7:55 PM 25.7 °F 15.1 °F 24.6 °F 96% 29.80 in 2.0 mi NE 11.5 mph - N/A Snow Light Snow
8:15 PM 25.7 °F 14.6 °F 24.6 °F 96% 29.77 in 1.8 mi NE 12.7 mph - N/A Snow Light Snow
8:35 PM 26.1 °F 14.0 °F 24.4 °F 94% 29.76 in 1.5 mi ENE 15.0 mph - N/A Snow Light Snow
8:55 PM 26.1 °F 14.5 °F 24.3 °F 93% 29.75 in 1.8 mi ENE 13.8 mph - N/A Snow Light Snow
9:15 PM 26.2 °F 14.2 °F 23.9 °F 91% 29.75 in 2.5 mi ENE 15.0 mph - N/A Snow Light Snow
9:35 PM 26.1 °F 15.0 °F 23.9 °F 92% 29.74 in 2.5 mi ENE 12.7 mph - N/A Snow Light Snow
9:55 PM 25.7 °F 14.6 °F 23.9 °F 93% 29.74 in 3.0 mi NE 12.7 mph - N/A Snow Light Snow
10:15 PM 25.7 °F 15.1 °F 23.9 °F 93% 29.74 in 4.0 mi NE 11.5 mph - N/A Snow Light Snow
10:55 PM 25.2 °F 14.4 °F 23.5 °F 94% 29.74 in 4.0 mi NE 11.5 mph - N/A Snow Light Snow
11:15 PM 24.6 °F 13.8 °F 23.0 °F 94% 29.74 in 4.0 mi NE 11.5 mph - N/A Snow Light Snow
11:35 PM 24.4 °F 13.5 °F 22.6 °F 93% 29.73 in 2.5 mi NE 11.5 mph - N/A Snow Light Snow
11:55 PM 24.3 °F 13.3 °F 22.5 °F 93% 29.73 in 1.8 mi NNE 11.5 mph - N/A Snow Light Snow